Location: Arboyeti
(42.1122°N, 44.6017°E)
Time: 11:07:11
(UTC+00:00)

ISS - Pass Details

Date: 05 October 2021
Orbit: 417 x 423 km, 51.6° (Epoch: 20 October)

Event Time Altitude Azimuth Distance (km) Brightness Sun altitude
Rises 15:17:15 0° 305° (NW) 2,364 1.1 -8.4°
Reaches altitude 10° 15:19:21 10° 306° (NW) 1,498 0.0 -8.8°
Maximum altitude 15:22:43 81° 33° (NNE) 428 -3.8 -9.4°
Enters shadow 15:25:51 12° 122° (ESE) 1,402 -1.6 -10.0°
